GFSFLT2_700_temp_270.txt.gz
Temp
7 7 7 7 7 7 7 6 6 6 6 6 6 6 6 6 5 6 6 5 5 5 5 5 5 6 6 6 5 5 5 5
7 7 6 6 6 6 6 5 5 5 6 6 6 6 6 5 5 5 5 6 5 6 6 5 5 5 5 5 5 4 4 4
6 6 6 5 5 5 4 3 4 5 6 6 6 6 6 6 6 6 6 5 5 5 5 5 5 5 4 4 4 4 4 4
7 6 6 5 5 4 4 3 4 5 5 6 5 6 5 5 6 6 6 5 5 5 5 4 4 4 4 4 3 3 3 3
6 6 6 5 5 4 4 4 4 5 5 5 5 5 5 5 5 5 5 5 4 4 4 4 4 3 3 3 3 3 3 3
6 6 6 6 5 4 4 4 4 4 5 5 5 6 5 5 5 5 5 4 4 4 3 3 3 3 3 3 3 3 2 2
5 5 6 5 4 5 4 4 4 5 5 5 6 5 5 5 4 4 4 4 4 3 3 3 2 2 3 2 2 2 3 3
5 5 5 5 5 5 5 5 5 5 5 5 5 5 4 4 4 4 4 3 3 3 3 2 2 2 2 2 2 2 2 3
5 5 5 4 5 5 5 5 5 6 5 5 4 4 4 3 3 3 3 2 2 2 2 2 2 2 2 2 2 2 2 2
4 4 4 4 5 5 5 5 5 5 5 4 4 4 4 4 3 2 2 2 2 2 2 1 1 1 1 1 1 1 1 1
4 4 4 4 5 5 5 5 5 5 4 4 4 4 4 3 2 2 2 2 1 1 1 1 1 1 1 1 1 1 1 1
4 3 4 4 4 5 5 4 4 4 4 4 4 3 3 2 2 2 2 1 1 1 1 1 1 1 1 1 0 0 1 0
3 3 3 3 4 4 3 3 3 3 3 3 2 2 2 1 1 1 1 1 1 1 1 1 1 1 1 1 1 0 0 0
2 3 3 2 2 3 3 3 3 2 2 2 2 1 1 1 0 0 0 0 0 0 0 0 0 1 1 1 1 0 2 0
2 2 2 2 2 2 2 2 2 2 1 1 0 -0 -0 -0 -0 -0 -0 -0 -0 -0 -0 -0 -0 -0 -0 0 1 1 1 0
2 2 1 2 2 2 2 2 1 1 0 -0 -1 -1 -1 -1 -1 -1 -1 -1 -1 -1 -1 -1 -1 -1 -1 -1 -1 -1 -1 1
2 1 2 2 2 2 2 1 1 0 0 -1 -1 -1 -1 -1 -1 -1 -1 -1 -1 -1 -1 -1 -1 -1 -2 -2 -2 -2 -2 -2
2 1 2 2 1 1 1 1 0 0 -0 -1 -2 -2 -1 -1 -2 -2 -2 -2 -2 -2 -2 -2 -2 -3 -3 -3 -3 -3 -4 -4
2 1 1 1 1 1 1 1 0 -1 -1 -2 -2 -2 -2 -2 -2 -2 -2 -2 -3 -3 -3 -3 -3 -4 -4 -5 -5 -5 -5 -5
1 1 1 1 1 1 1 0 -0 -1 -2 -2 -2 -2 -2 -2 -2 -2 -3 -3 -3 -4 -4 -4 -4 -4 -5 -5 -6 -6 -6 -7

GFSFLT2_700_temp_276.txt.gz
Temp
7 6 6 7 6 5 5 6 5 4 4 5 5 5 5 6 5 5 5 5 5 5 5 5 5 5 5 5 5 5 5 4
7 6 5 6 5 5 4 4 4 3 4 4 5 5 5 5 5 5 5 5 5 5 5 5 5 5 5 5 4 4 4 4
5 5 5 4 4 4 4 4 3 2 2 3 5 5 5 5 5 5 5 5 4 5 5 5 4 4 4 4 4 4 4 4
6 4 5 5 4 5 4 3 3 4 3 4 4 4 4 5 4 4 4 4 4 4 4 4 4 4 4 4 4 4 4 4
6 5 5 4 4 3 4 3 3 4 4 4 4 4 4 4 4 4 4 5 4 4 4 4 4 4 4 4 4 4 4 4
5 5 5 4 4 4 3 3 3 4 4 4 4 4 4 4 4 4 4 4 4 4 4 3 3 3 3 3 3 3 3 3
6 6 5 4 4 4 3 3 4 4 4 4 4 4 5 5 5 4 4 4 4 4 4 4 4 4 4 3 3 3 3 3
6 6 5 5 4 4 3 3 4 4 4 4 4 5 4 4 4 4 4 4 4 4 3 3 3 3 3 3 3 2 2 1
5 5 4 4 4 4 3 4 4 4 4 4 4 4 4 4 4 3 3 3 3 3 2 2 2 2 2 2 2 2 2 2
5 5 4 4 4 4 4 4 4 4 4 4 4 4 4 3 3 3 3 2 2 1 1 1 2 1 1 1 1 1 1 2
4 4 4 4 4 4 4 4 4 4 4 4 3 4 4 4 3 3 2 2 1 1 1 1 2 1 1 1 1 1 1 1
4 4 4 4 4 4 4 4 4 4 3 4 4 4 3 4 3 2 2 2 1 1 1 2 2 2 1 1 1 1 2 1
4 4 4 4 4 4 4 4 3 3 3 3 3 3 3 2 2 2 1 1 1 1 1 1 1 2 2 1 0 1 1 -0
4 4 3 4 3 3 3 3 3 3 3 3 3 2 2 2 1 1 1 1 1 1 1 1 1 1 1 1 0 -0 -1 -0
3 3 3 3 3 2 2 2 3 4 4 3 2 2 1 1 1 1 1 1 1 1 1 1 0 0 1 1 1 -0 -0 -1
3 3 3 3 2 2 3 2 2 2 1 2 1 1 1 1 0 0 0 -0 0 0 0 0 -0 -0 -0 -0 -0 -1 -1 0
3 3 2 2 2 2 2 2 2 2 2 2 2 1 1 1 0 -0 -0 -1 -0 -0 -1 -1 -1 -1 -1 -1 -1 -1 -1 -1
3 3 2 2 2 2 2 2 1 2 1 2 2 2 1 0 -0 -0 -1 -1 -1 -1 -1 -1 -1 -1 -1 -1 -1 -1 -1 -1
3 3 2 2 2 2 2 1 1 1 1 1 1 1 0 0 -0 -1 -1 -1 -1 -1 -2 -1 -2 -2 -2 -2 -2 -2 -2 -2
3 3 2 2 2 2 1 1 1 1 1 1 0 0 -0 -1 -1 -1 -1 -2 -2 -2 -2 -2 -2 -2 -2 -3 -3 -3 -3 -3

GFSFLT2_700_temp_279.txt.gz
Temp
7 6 6 6 7 6 5 5 5 5 4 4 4 5 5 5 5 5 5 5 5 5 5 5 5 5 5 5 5 4 5 5
6 6 6 7 5 6 5 5 5 5 3 4 4 4 5 5 5 5 5 5 5 5 5 5 5 5 5 4 4 4 4 4
7 6 5 5 5 5 5 5 4 3 3 4 3 4 4 5 5 5 5 4 4 4 4 4 4 4 4 4 4 4 4 4
6 5 5 5 5 5 5 4 4 3 3 3 4 4 5 5 4 4 4 4 4 4 4 4 4 4 4 4 4 4 4 4
6 6 5 5 5 4 5 4 4 3 3 4 4 4 4 4 4 4 5 5 4 5 4 4 4 4 4 4 3 4 4 4
6 5 5 5 5 4 4 3 4 3 3 3 4 4 5 5 5 5 4 4 4 4 4 4 4 4 3 3 3 3 3 3
6 5 5 5 4 4 3 3 4 4 4 4 5 4 4 4 4 4 4 4 4 4 4 4 4 3 3 3 3 3 3 3
6 6 5 5 4 4 4 3 3 4 4 4 4 4 4 4 4 4 4 4 4 4 4 3 3 3 3 3 2 2 2 2
6 5 5 4 4 4 4 4 4 4 4 4 4 4 4 4 4 4 4 4 3 3 3 2 2 2 2 1 2 2 2 2
6 5 5 4 4 4 4 4 4 4 4 4 4 4 4 4 4 3 3 3 2 2 2 2 1 1 1 1 0 1 2 2
5 5 4 4 4 4 4 4 3 4 4 4 4 4 4 4 4 3 2 2 2 1 2 2 1 1 1 1 1 1 1 1
5 4 4 4 4 4 4 4 4 4 4 4 3 4 4 3 3 2 2 2 2 2 2 2 2 1 1 1 1 0 0 1
4 4 4 3 4 3 3 3 3 3 3 3 3 3 3 3 2 2 2 2 2 2 2 2 1 1 1 0 0 0 0 1
4 3 3 3 3 3 4 3 3 3 3 3 3 3 2 2 2 1 1 1 1 1 1 1 1 1 0 -0 -1 -1 -1 -0
4 3 3 3 4 3 3 3 3 3 3 3 2 2 2 2 2 1 1 1 1 1 1 0 0 1 0 0 -1 -1 -2 -1
4 3 3 3 3 3 3 3 3 3 3 2 2 2 2 1 1 1 0 0 0 0 0 0 -0 -0 -0 -0 -0 -1 -1 -1
4 3 3 3 2 2 2 3 2 2 2 2 2 1 1 1 1 1 0 -0 -0 -0 -1 -1 -1 -1 -1 -1 -1 -1 -1 -1
4 4 3 3 3 2 2 2 2 2 2 2 2 2 1 1 1 0 -0 -0 -0 -1 -1 -1 -1 -1 -1 -2 -2 -2 -2 -2
4 4 3 3 2 2 2 2 2 1 1 1 1 1 1 0 0 -0 -1 -1 -1 -1 -1 -1 -2 -2 -2 -2 -2 -3 -3 -3
3 3 3 3 2 2 2 2 1 1 1 1 1 1 0 0 -0 -1 -1 -1 -1 -1 -2 -2 -2 -2 -2 -3 -3 -3 -3 -3

GFSFLT2_700_temp_282.txt.gz
Temp
7 6 6 6 6 6 6 6 6 5 5 4 5 5 5 5 5 5 5 5 5 5 5 5 4 4 4 4 4 5 5 5
6 6 6 6 6 5 6 5 5 4 3 3 4 5 4 5 5 5 5 5 4 5 4 4 4 4 4 4 4 4 4 4
6 6 5 5 5 5 5 4 5 5 3 3 4 5 4 5 5 5 5 5 5 5 4 4 4 4 4 4 4 4 4 4
6 6 5 5 5 4 4 4 5 5 4 4 4 4 4 5 5 5 5 4 4 4 4 4 4 4 4 4 4 4 4 4
6 5 5 5 5 4 4 4 4 5 4 4 4 4 5 4 5 5 5 4 4 4 4 4 4 4 3 3 3 3 3 4
5 6 6 5 5 4 4 4 4 4 4 4 4 4 5 5 5 4 4 4 4 4 4 3 3 3 3 3 3 3 3 3
5 5 5 5 4 4 4 3 4 4 4 5 5 5 5 5 4 4 4 4 4 4 4 3 3 3 3 2 3 2 3 3
6 6 5 5 4 4 3 3 3 4 4 5 5 5 5 5 4 4 5 4 4 4 3 2 2 2 2 2 2 2 2 3
6 6 5 4 4 4 4 4 4 5 5 5 4 4 4 4 5 4 4 4 4 3 3 2 2 2 2 2 3 3 2 2
6 5 5 4 4 4 4 4 4 5 4 4 4 4 4 4 4 4 4 3 2 2 2 1 1 1 1 1 1 2 2 2
6 5 4 4 4 4 4 4 4 4 4 4 4 4 4 4 4 3 3 2 2 2 1 1 1 1 1 1 1 1 1 1
5 4 4 4 4 4 4 4 3 3 3 4 4 4 4 4 3 3 2 2 2 2 1 1 1 1 1 1 1 1 0 0
5 4 4 3 3 3 4 3 3 3 3 3 4 4 3 3 2 2 2 1 1 1 1 1 1 1 0 0 0 0 0 -0
5 4 3 3 3 3 3 3 3 3 3 3 3 3 3 2 2 2 2 2 2 1 1 0 0 0 -0 -0 -1 -1 -1 -1
4 4 3 3 3 3 3 3 2 3 3 3 3 3 3 2 2 2 1 1 1 1 1 0 -0 -0 -0 -1 -1 -1 -2 -2
4 3 3 3 3 4 3 3 2 2 2 2 2 2 2 2 2 1 1 1 0 0 -0 -0 -0 -1 -1 -1 -1 -1 -2 -2
4 4 3 3 3 3 3 2 2 2 2 2 1 2 2 1 1 1 1 1 0 -0 -0 -0 -1 -1 -1 -1 -1 -2 -2 -2
4 4 3 3 3 3 2 2 2 2 2 1 1 1 1 1 1 1 1 0 -0 -1 -1 -1 -1 -1 -2 -2 -2 -2 -3 -3
4 4 3 3 3 3 2 2 2 1 1 1 1 1 1 1 1 0 0 -0 -1 -1 -1 -1 -2 -2 -2 -2 -3 -3 -3 -3
4 4 3 3 3 3 2 2 2 1 1 0 0 0 0 0 0 -0 -0 -1 -1 -1 -2 -2 -2 -2 -3 -3 -3 -4 -4 -4

GFSFLT2_700_temp_285.txt.gz
Temp
6 6 6 6 6 5 5 5 5 5 4 4 4 4 5 5 5 5 5 5 5 5 5 5 4 4 4 4 4 4 4 4
6 6 6 5 5 5 5 5 4 4 4 3 3 4 5 5 5 5 5 5 5 5 5 5 4 4 4 3 4 4 4 4
6 6 5 5 5 5 5 4 4 4 4 3 3 4 5 4 5 5 5 5 5 5 5 5 4 4 4 4 4 4 4 4
6 6 5 5 5 4 4 4 4 4 4 4 4 4 5 5 5 5 5 5 5 5 4 4 4 4 4 4 4 4 4 4
6 5 5 5 5 5 4 4 4 4 4 4 4 4 4 5 5 5 5 5 4 4 4 4 4 4 4 4 3 3 4 3
5 5 5 5 5 4 4 4 3 4 4 4 5 5 5 5 5 5 4 4 4 4 4 4 4 3 3 3 3 3 3 3
6 5 5 5 4 4 3 3 3 3 4 5 5 5 5 5 5 5 4 5 5 4 4 4 3 3 3 3 3 3 3 3
6 5 5 5 4 4 3 3 3 4 4 4 4 5 5 5 5 4 5 4 4 4 3 3 3 3 3 3 3 3 3 3
6 5 5 4 3 3 4 4 4 4 5 5 5 5 4 4 4 5 4 4 4 4 3 3 3 3 3 2 2 2 2 2
5 5 5 4 4 4 4 4 4 4 4 4 4 4 4 4 4 4 4 3 3 2 2 2 2 2 2 2 2 2 2 2
5 5 5 4 4 4 4 4 4 4 4 4 4 4 4 4 4 3 3 2 2 2 2 2 2 2 1 1 1 1 1 1
5 5 4 4 3 3 3 4 4 4 4 4 4 3 4 4 3 3 2 2 2 1 2 2 1 1 1 1 1 1 1 0
5 5 4 3 3 3 3 3 4 3 3 3 3 3 3 3 3 2 2 1 1 1 1 1 1 1 0 0 -0 -0 0 -0
5 5 4 3 3 3 3 3 3 3 3 3 3 3 3 2 2 2 2 1 1 1 1 1 0 0 -0 -0 -0 -1 -1 -1
5 5 4 3 3 3 3 3 2 2 2 2 2 2 2 2 2 2 2 1 1 0 0 -0 -0 -0 -0 -1 -1 -1 -1 -1
5 5 4 3 3 3 3 2 2 2 2 2 2 2 1 2 2 1 1 1 1 0 -0 -0 -1 -1 -1 -1 -2 -2 -2 -2
5 4 4 3 3 3 3 2 2 2 1 1 1 1 1 1 1 1 1 1 0 -0 -0 -1 -1 -1 -2 -2 -2 -2 -2 -2
5 4 4 4 3 3 3 2 2 2 1 1 1 0 0 1 1 1 1 0 0 -0 -1 -1 -1 -2 -2 -2 -2 -3 -3 -3
5 4 4 3 3 3 2 2 2 1 1 1 0 0 0 0 1 1 0 -0 -0 -1 -1 -1 -2 -2 -2 -2 -3 -3 -3 -4
5 4 4 3 3 3 2 2 2 1 1 0 0 -0 -0 -0 0 0 -0 -1 -1 -1 -2 -2 -2 -2 -3 -3 -3 -3 -4 -4

GFSFLT2_700_temp_291.txt.gz
Temp
6 6 6 5 5 4 5 4 4 4 4 4 3 3 3 4 4 4 5 5 5 5 5 5 5 5 4 4 4 3 3 3
6 6 5 5 5 5 4 4 4 4 4 4 3 3 3 3 4 4 5 5 5 5 5 5 5 5 5 4 4 4 4 3
6 5 5 5 5 5 4 4 4 3 4 4 3 3 3 4 4 5 5 5 5 5 5 5 5 5 4 4 4 4 4 3
6 5 5 5 5 4 4 4 4 3 3 4 3 3 4 4 5 5 5 5 5 5 5 5 4 4 4 4 4 4 3 3
5 5 5 5 5 4 4 3 3 3 3 3 4 4 5 5 5 5 5 5 5 5 5 5 5 5 4 4 3 3 3 3
5 5 5 5 4 4 3 3 3 3 3 4 4 5 5 5 5 5 5 5 5 5 5 5 5 4 4 3 3 3 3 2
5 5 5 5 4 4 3 3 3 3 4 4 5 5 5 5 5 4 4 5 5 5 5 5 4 4 4 3 3 3 2 2
5 5 5 5 4 4 3 3 3 3 4 4 5 5 4 4 5 5 5 5 5 5 5 4 4 4 3 3 3 3 3 2
5 5 5 5 4 4 4 4 4 4 4 4 4 4 4 4 4 5 5 5 4 4 4 4 4 3 3 3 2 2 2 2
5 5 5 5 4 4 4 4 4 4 4 4 4 4 4 4 4 5 4 4 4 4 4 3 3 3 3 2 2 2 2 2
5 5 5 5 4 4 4 4 4 4 4 4 3 4 4 4 4 4 4 4 4 3 3 3 3 2 2 2 2 2 1 1
5 5 5 5 4 4 4 4 3 3 3 3 3 3 4 4 3 4 4 4 3 3 3 2 2 2 2 1 1 1 1 1
5 5 5 4 4 4 3 3 3 3 3 3 3 3 3 3 3 3 3 3 3 3 3 2 2 1 1 1 1 1 0 0
5 5 5 4 4 4 3 3 3 3 2 2 2 2 2 3 3 3 3 3 3 3 2 2 2 1 1 1 0 0 0 -0
5 4 4 4 4 4 4 3 3 2 2 2 2 2 2 2 2 2 2 2 2 2 2 2 1 1 1 0 -0 -0 -0 -1
5 4 4 4 4 4 3 3 2 2 2 1 1 1 1 1 1 2 2 2 2 2 1 1 1 1 0 0 -1 -1 -1 -1
5 4 4 4 4 4 3 3 2 2 2 1 1 1 1 1 1 1 1 2 1 1 1 1 1 0 -0 -1 -1 -1 -2 -2
6 5 4 4 4 3 3 2 2 2 2 1 1 1 1 1 1 1 1 1 1 1 1 1 0 -1 -1 -1 -2 -2 -2 -3
6 5 5 4 4 3 3 3 2 2 2 1 1 1 1 1 1 0 0 0 0 0 0 0 0 -0 -1 -2 -2 -2 -3 -3
6 5 5 4 4 3 3 3 2 2 1 1 1 1 1 0 0 -0 0 -0 -0 -0 -0 -0 -0 -1 -1 -2 -2 -3 -3 -3

GFSFLT2_700_temp_297.txt.gz
Temp
6 6 6 6 5 5 5 4 4 4 4 4 4 3 3 4 4 4 5 5 5 5 5 5 5 5 4 4 4 3 4 4
6 6 6 6 5 5 4 4 4 4 4 4 4 3 3 4 4 4 5 5 5 5 5 5 5 4 4 4 3 2 6 4
7 6 6 5 5 5 4 4 4 4 4 4 4 4 3 4 4 4 5 5 5 5 5 5 5 5 4 4 4 5 5 4
7 6 6 5 5 5 4 4 4 4 4 4 4 4 4 4 4 5 5 5 5 5 5 5 5 4 4 4 4 5 4 4
7 6 5 5 5 5 4 4 4 3 4 4 4 4 4 5 5 5 5 5 5 5 5 5 5 4 4 4 4 4 4 4
6 6 5 5 5 4 4 4 4 3 3 4 4 4 4 5 5 5 5 5 5 5 5 4 4 4 4 4 4 4 4 4
6 6 6 5 5 5 4 4 4 3 3 4 4 4 5 5 5 5 5 5 5 5 5 4 4 4 4 4 4 4 4 4
6 6 6 6 5 5 4 4 3 3 3 3 4 4 5 5 5 5 5 5 5 4 4 4 5 4 4 4 4 3 3 4
6 6 6 6 5 5 5 4 3 3 3 4 4 4 5 5 5 5 5 5 5 4 4 4 4 4 4 4 4 3 3 3
7 6 6 6 6 5 5 4 4 4 4 4 5 5 5 5 5 5 5 4 4 4 4 4 4 4 3 3 3 3 3 3
7 6 6 6 6 5 5 4 4 4 4 4 4 4 5 5 5 5 5 4 4 4 4 3 3 3 3 3 3 3 3 3
7 6 6 6 5 5 5 4 4 4 4 4 4 4 4 5 5 4 4 4 4 4 3 3 3 3 3 3 3 3 3 3
7 6 6 6 5 5 5 5 4 4 4 4 4 4 4 4 4 4 4 4 4 3 3 3 3 3 3 2 3 3 2 2
7 6 6 6 5 5 5 5 4 4 4 4 4 4 4 3 3 3 3 3 3 3 3 3 2 2 2 2 2 2 2 1
7 6 6 6 5 5 5 5 4 4 4 4 3 3 3 3 3 3 3 3 3 2 2 2 2 2 2 2 2 1 2 1
7 6 6 6 6 5 5 5 4 4 4 4 3 3 3 2 2 2 2 2 2 2 2 2 2 2 1 1 1 1 0 1
7 6 6 5 5 5 5 5 4 4 4 3 3 2 2 2 2 2 2 2 2 2 2 2 2 2 1 1 1 1 1 -0
7 6 6 6 6 4 5 4 5 5 4 3 3 2 2 2 2 2 2 2 2 2 2 1 1 1 1 1 1 1 1 -0
7 6 6 6 6 5 4 4 4 4 4 3 3 2 2 2 2 2 2 2 1 1 1 1 1 1 1 1 1 1 0 -0
8 6 6 6 6 6 4 4 4 4 4 3 3 2 2 2 2 2 1 1 1 1 1 0 0 0 0 0 0 0 0 -0